Presure
169 130 171 181 168 179 170 139 178 177 144 176 165 184 141 159 141 174 162 169 185 143 187 155 188 192 151 188 233 243 241 252 257 248 245 264 265 252 258 254 253 282 279 284 265
170 155 154 127 184 169 141 165 146 160 120 162 145 139 147 142 153 168 170 166 175 149 170 174 179 163 192 202 182 224 219 240 255 247 251 227 213 258 260 258 272 259 276 281 279
134 130 143 130 170 135 170 161 166 156 134 156 133 180 142 166 163 131 130 172 131 176 177 176 171 135 154 161 191 213 215 230 241 249 241 249 258 154 254 265 276 237 264 265 267
156 156 135 162 112 166 122 145 164 141 149 156 130 131 141 123 170 162 140 128 130 153 175 132 171 184 176 185 192 199 191 248 239 248 244 230 250 249 247 259 261 267 276 250 263
124 114 142 132 133 152 131 148 143 131 142 159 131 148 153 156 157 144 121 119 161 132 162 171 148 183 183 173 192 195 204 191 210 255 244 243 243 196 246 192 252 258 268 269 266
124 129 145 133 127 155 128 125 128 155 123 119 137 130 133 125 167 160 162 163 139 131 120 148 172 117 147 181 179 186 195 208 214 214 244 251 234 244 250 249 252 254 265 311 274
131 126 110 127 117 116 110 174 126 131 124 131 99 115 159 174 119 149 168 166 119 134 170 116 159 159 173 185 177 182 189 195 224 210 213 262 262 151 234 246 249 256 261 279 315
126 146 119 128 124 120 121 114 124 123 112 118 123 140 125 112 103 146 116 109 141 134 140 156 153 163 121 132 187 184 229 194 189 220 213 257 240 230 248 249 249 252 264 282 313
128 134 155 143 124 123 118 113 110 125 127 110 119 129 140 119 135 137 114 134 128 141 100 125 156 115 155 174 152 191 184 189 186 239 243 260 246 256 233 250 251 254 264 263 280
168 119 115 156 159 146 116 120 119 163 120 112 102 113 115 121 103 121 124 124 130 132 125 138 140 129 142 165 176 193 185 188 184 225 263 256 255 240 250 239 241 252 260 259 256
144 118 161 99 146 125 119 123 128 126 137 130 129 108 127 115 114 123 124 116 115 126 97 143 151 139 140 140 173 181 191 188 178 202 260 259 258 251 239 242 229 230 258 259 260
161 112 158 158 123 123 119 107 104 150 161 165 126 122 145 119 133 122 118 113 132 111 105 145 105 142 115 135 195 153 186 190 181 176 227 247 259 254 246 234 236 234 231 251 262
139 121 144 142 148 146 129 118 104 148 123 148 134 162 139 131 112 117 126 125 114 140 127 116 124 104 131 110 140 130 138 181 175 193 222 206 254 244 241 237 231 234 233 218 243
145 157 134 152 129 118 109 110 128 153 157 154 104 133 124 118 136 123 115 148 128 118 121 135 133 122 146 111 98 152 204 194 191 178 222 220 251 223 246 246 232 233 226 231 212
127 134 156 121 117 125 162 154 150 121 116 149 116 122 121 114 122 122 140 166 155 130 162 163 131 134 109 120 140 104 138 183 185 220 184 236 205 228 261 241 238 234 228 232 205
119 114 121 140 137 148 153 124 117 150 149 118 154 134 116 110 120 112 120 139 149 140 126 136 147 129 158 128 140 154 127 202 178 169 191 197 220 226 235 255 235 230 230 224 229
138 107 121 133 138 137 126 125 129 142 136 139 153 157 131 121 114 105 126 165 160 140 142 132 114 151 141 139 139 119 135 188 193 172 176 204 200 245 246 236 250 237 236 226 221
113 119 126 119 115 136 126 121 120 148 117 116 119 141 123 108 105 117 138 116 125 156 131 117 147 106 142 115 114 123 167 190 177 169 206 221 206 246 251 231 242 240 235 225 225
106 119 136 108 97 122 132 104 135 143 131 151 119 156 148 160 133 124 163 149 139 147 135 133 136 124 149 143 119 137 172 191 177 173 198 193 206 244 241 222 229 227 235 232 229
119 115 141 115 116 103 119 107 122 112 123 124 117 148 143 164 141 133 130 135 129 139 145 145 158 112 104 115 164 196 188 185 180 175 200 171 207 196 250 226 223 224 229 234 227
118 117 116 126 117 123 125 119 123 131 129 126 120 119 150 135 156 119 121 137 126 141 140 131 138 142 97 118 184 185 206 190 176 202 193 178 198 193 231 231 214 231 221 228 234
118 116 113 124 149 124 117 132 135 136 126 113 157 122 117 142 124 144 131 141 115 136 146 135 130 141 146 149 179 122 201 175 180 206 192 188 197 211 228 237 216 231 230 227 234
143 126 129 123 116 116 119 114 120 131 130 129 132 138 127 124 123 127 135 155 164 162 153 134 151 170 142 165 99 117 183 173 205 201 194 189 207 205 231 237 221 224 240 229 235
131 123 131 129 136 121 143 131 131 126 126 142 155 129 137 143 144 128 118 152 158 149 116 148 130 147 141 144 137 191 178 190 201 212 184 192 194 199 230 238 229 219 245 235 240
123 125 124 115 144 111 134 129 144 129 147 138 136 152 140 126 128 133 163 161 129 129 129 149 182 165 147 146 191 193 182 166 200 204 213 196 201 212 235 233 225 217 234 233 232
125 118 112 112 118 119 130 115 154 133 117 138 141 134 140 127 155 150 172 164 131 114 131 157 143 152 204 182 195 180 170 175 198 192 203 212 199 237 248 240 241 221 229 239 240
115 119 128 120 126 118 123 127 123 129 140 140 124 126 163 164 125 140 148 144 164 134 145 112 107 185 83 190 192 197 211 197 206 195 194 206 195 240 243 251 252 231 224 231 236
Wind_Speed
38 22 34 37 34 36 30 22 28 31 32 27 29 37 32 34 32 33 34 36 42 34 44 35 42 50 38 44 73 57 50 40 29 27 27 22 21 22 19 26 32 22 31 37 45
36 34 35 22 36 31 28 26 37 25 10 33 38 25 39 22 34 37 32 37 33 36 34 40 43 46 55 61 49 68 59 53 36 33 27 20 24 21 19 20 16 21 13 24 30
28 30 34 17 29 27 31 24 25 23 28 32 29 37 36 30 38 31 28 32 26 37 40 38 37 34 48 52 61 67 64 56 46 34 35 30 31 22 24 28 29 35 22 25 25
25 27 19 28 19 25 13 33 21 18 21 23 32 28 38 22 34 31 46 30 41 42 42 32 41 53 48 58 64 66 56 59 53 34 34 32 30 30 25 33 31 32 31 31 27
16 11 21 13 30 20 11 25 14 32 33 30 36 34 27 26 31 34 27 29 41 46 33 43 42 54 55 47 63 63 68 57 67 40 34 33 30 24 31 24 32 34 37 28 29
15 13 20 11 22 17 24 21 26 11 23 18 30 33 37 26 26 32 27 32 40 36 30 39 46 33 47 54 53 61 64 69 67 69 39 34 30 31 32 34 35 36 40 35 28
16 8 2 20 10 3 6 20 24 21 26 30 11 21 26 31 30 28 33 32 38 40 42 30 42 44 55 62 56 60 68 67 72 66 61 36 34 32 36 36 37 40 40 39 30
9 16 17 19 13 10 12 3 21 21 7 20 31 21 33 18 11 31 33 26 38 39 42 44 45 49 36 44 64 63 79 72 66 71 69 42 40 42 36 36 38 41 44 43 39
11 18 7 10 13 12 7 7 10 22 20 11 26 23 23 30 31 32 28 38 37 41 18 41 50 27 53 63 55 69 67 70 68 85 59 47 42 39 39 36 40 45 46 41 39
8 4 8 4 4 9 10 17 17 15 19 18 12 26 27 28 17 35 34 37 39 39 40 47 47 45 54 59 67 74 72 72 69 85 62 53 43 43 41 40 39 45 47 43 37
3 2 2 10 6 10 13 14 16 17 18 20 24 25 29 29 32 35 36 35 37 39 21 49 52 50 54 56 68 68 76 75 68 81 72 60 49 42 42 38 39 41 51 49 43
3 8 2 5 8 10 11 19 20 16 18 22 24 27 28 24 34 34 36 37 41 39 27 48 29 55 44 57 76 64 76 78 71 69 97 75 56 51 47 45 43 42 38 53 52
4 11 9 8 11 11 14 15 24 20 19 22 23 25 29 32 33 36 38 40 40 46 43 36 41 28 54 37 58 61 65 75 71 83 92 85 63 58 53 50 47 45 46 36 54
5 7 7 12 13 14 20 22 22 20 22 24 30 29 31 32 35 36 38 44 42 37 43 50 44 50 62 48 39 67 81 84 83 78 95 87 66 73 58 54 50 48 46 47 36
7 7 11 16 19 16 20 20 22 23 26 27 28 30 32 36 36 38 44 51 50 47 57 64 50 53 48 56 64 46 68 85 84 103 85 103 88 87 56 56 52 49 47 49 45
18 20 15 17 17 20 22 22 27 26 29 30 34 35 34 37 38 41 41 46 52 51 49 50 60 47 64 65 65 70 65 84 86 80 95 86 108 94 74 56 53 52 50 48 50
16 22 22 20 21 21 26 25 27 31 31 35 38 39 39 38 42 37 43 56 58 53 55 49 51 69 61 61 70 64 68 88 90 85 88 92 89 73 68 68 58 55 54 50 51
25 24 23 22 24 23 26 29 32 31 34 37 38 40 40 43 41 44 49 49 49 64 55 55 63 42 65 61 60 63 87 93 87 87 99 117 100 74 69 72 65 61 60 57 55
27 29 26 30 21 24 26 34 28 34 36 41 41 48 47 52 47 47 60 55 55 60 57 56 64 61 68 65 63 70 90 94 93 93 95 96 100 72 79 79 71 68 65 61 59
27 28 29 32 34 33 32 29 32 30 41 44 44 50 50 58 53 53 51 53 53 59 66 70 80 57 50 58 91 96 100 99 97 98 95 93 108 92 75 76 75 74 69 66 62
40 38 37 35 37 36 36 42 36 41 44 46 48 48 55 53 62 46 48 58 50 62 62 58 65 71 45 68 103 99 94 99 103 97 101 97 105 97 104 77 82 71 73 70 70
42 40 40 40 40 41 44 42 42 49 51 50 57 52 49 58 55 61 58 64 51 59 70 62 59 73 79 84 104 66 95 103 98 104 99 104 104 126 99 75 82 77 73 70 69
42 42 43 46 46 47 49 48 49 50 53 55 58 60 59 56 57 60 59 75 80 79 78 62 82 92 79 97 56 64 104 105 102 112 101 108 121 117 94 77 81 81 71 72 68
48 48 46 49 49 47 52 51 53 56 58 60 64 61 64 67 69 57 53 78 84 77 61 80 71 82 68 84 56 98 104 103 103 112 102 108 107 113 93 81 84 89 83 81 78
52 53 53 50 59 48 53 57 58 59 62 64 67 71 69 58 64 67 86 85 62 59 65 83 100 96 89 75 98 98 109 105 117 107 113 104 113 126 90 88 86 90 85 83 83
56 54 49 53 57 57 58 53 63 64 58 69 69 71 75 61 82 83 87 92 62 64 63 97 81 85 90 105 92 111 108 113 106 107 113 127 109 107 83 87 85 90 88 86 85
52 58 61 62 63 57 60 67 63 65 71 71 64 67 84 82 69 76 85 83 97 70 87 67 53 96 52 103 97 97 110 101 110 104 106 120 108 108 93 87 85 88 93 90 90
Wind_Direction
88 94 93 100 81 92 80 80 79 79 69 68 64 65 66 54 54 50 22 43 43 32 35 28 27 27 17 17 31 26 20 19 15 5 358 356 348 315 295 284 277 301 269 261 253
89 91 91 97 107 96 70 72 67 87 64 58 51 56 41 42 36 40 34 42 37 17 16 22 20 21 21 20 19 26 20 19 10 3 2 347 340 348 320 294 310 274 295 279 263
97 101 88 108 95 83 87 65 70 72 65 48 63 57 48 48 36 50 47 27 36 22 25 19 11 18 4 13 15 17 15 16 12 3 356 357 2 294 341 347 348 281 288 263 264
99 77 94 76 68 82 115 55 75 62 61 47 55 36 35 48 45 29 21 27 25 7 20 26 12 18 13 15 15 13 11 19 12 1 356 350 350 352 342 351 343 339 332 275 276
145 97 84 69 62 63 94 75 68 53 38 46 40 37 31 28 38 34 40 33 17 15 7 11 359 16 14 8 13 11 10 8 12 4 355 350 347 341 347 322 341 339 336 308 287
88 102 63 118 81 82 58 61 50 78 54 48 32 30 24 39 28 26 11 11 13 15 12 1 8 11 10 10 7 8 7 7 5 7 356 350 350 343 351 342 339 334 333 333 296
88 93 139 68 219 53 284 64 50 37 39 33 14 24 27 33 29 356 15 8 17 4 7 9 359 1 7 8 4 5 4 5 11 1 360 357 352 322 348 344 338 340 332 334 317
151 85 61 58 77 96 66 40 37 37 21 32 23 22 15 29 21 358 18 20 357 0 0 358 357 359 3 1 3 3 18 1 2 3 -0 355 349 350 349 344 341 342 343 342 343
97 51 40 65 52 50 41 30 6 20 15 29 17 0 7 6 349 350 8 355 359 355 15 355 358 6 356 359 358 360 360 359 358 8 358 356 358 350 349 348 349 349 351 344 344
117 170 268 23 0 354 14 16 6 11 10 14 5 7 5 3 10 357 352 355 353 353 352 352 351 350 352 353 358 359 357 358 356 4 2 360 358 356 359 354 354 357 356 352 350
26 75 26 18 333 345 357 356 349 351 323 332 331 0 339 357 356 347 349 350 350 349 10 348 350 349 350 349 353 355 357 355 354 358 3 359 356 355 354 353 350 352 356 357 359
228 8 330 3 329 336 342 349 0 342 348 357 342 337 325 359 327 341 345 349 338 347 332 345 351 345 352 345 354 349 354 353 352 353 5 2 359 354 355 354 355 356 352 2 354
232 328 322 306 312 314 320 321 342 322 331 317 328 343 322 324 345 340 334 335 340 337 340 343 342 358 344 339 350 345 344 350 350 352 4 359 358 352 352 352 348 356 357 337 3
325 294 292 311 301 300 328 324 315 320 328 326 341 315 324 332 330 327 337 332 331 335 336 340 345 340 339 349 328 344 350 349 350 348 360 359 358 354 351 349 346 350 351 354 329
244 272 291 284 294 295 312 313 316 310 320 320 323 326 321 331 321 327 326 338 333 332 333 339 337 338 347 338 339 338 340 346 347 1 346 1 357 355 347 346 347 346 344 348 336
259 285 283 291 296 306 314 300 308 316 319 314 324 318 322 329 319 327 329 324 331 329 331 332 334 335 335 338 336 338 336 349 344 341 346 348 357 354 350 348 345 341 342 340 347
284 293 281 287 291 293 301 301 305 314 316 316 320 325 309 313 317 328 323 332 331 326 326 329 328 331 334 334 338 336 336 341 345 341 341 346 350 350 348 346 347 343 343 338 338
272 281 268 279 306 290 293 298 300 317 303 306 307 310 309 320 325 317 319 324 324 329 326 322 331 319 333 330 333 331 337 338 339 339 353 351 351 348 347 344 346 345 342 338 338
274 268 280 290 300 300 289 310 302 311 296 318 300 322 315 325 307 313 324 317 321 324 326 326 324 325 330 332 326 330 333 336 338 337 348 339 347 345 347 343 343 342 340 335 334
262 271 273 281 287 299 289 301 296 297 291 294 305 315 310 326 309 309 316 320 320 325 324 326 327 326 311 325 331 332 332 334 336 336 344 336 344 337 341 341 340 338 337 334 331
265 272 278 269 284 278 278 287 296 284 290 291 298 304 314 308 314 317 318 317 320 324 324 320 324 326 318 320 328 328 343 332 333 344 336 336 338 335 347 337 338 334 333 331 329
267 275 285 273 286 274 284 279 284 299 297 306 313 301 310 307 308 308 314 315 309 321 320 320 319 325 326 328 327 328 335 332 337 343 336 332 339 342 343 334 335 331 327 327 326
260 263 265 272 284 285 285 294 295 283 286 292 292 299 301 304 308 311 313 313 314 316 314 319 318 320 324 324 321 327 323 329 340 340 336 330 341 339 340 330 330 329 324 323 323
265 271 267 268 276 286 286 280 282 285 286 298 306 295 301 303 305 308 308 311 312 314 313 316 317 323 319 323 328 323 324 326 336 340 332 329 334 336 335 326 328 329 326 325 326
267 268 272 284 287 290 284 284 290 286 296 292 293 299 297 305 307 309 309 310 311 317 317 315 316 319 322 320 320 321 320 329 337 334 341 332 332 338 331 325 326 326 325 323 325
266 276 285 287 284 286 280 293 292 284 299 290 291 296 297 307 302 304 308 305 312 309 313 312 318 322 324 315 320 315 324 322 332 327 334 338 329 333 325 324 319 322 323 326 325
277 276 273 281 281 286 285 283 291 290 287 289 297 299 299 302 307 307 306 304 306 306 309 311 319 314 324 313 316 323 330 326 332 325 324 334 324 330 327 321 319 320 322 323 324